SCP
0 0 0 0 0 0 0 0 0 0 0 0 0 0 0 0 0 0 0 0 0 0 0 0 0 0 0 0 0 0 0 0 0 0 0 0 0 0 0 0 0 0 0 0 0 0 0 0 0
0 0 0 0 0 0 0 0 0 0 0 0 0 0 0 0 0 0 0 0 0 0 0 0 0 0 0 0 0 0 0 0 0 0 0 0 0 0 0 0 0 0 0 0 0 0 0 0 0
0 0 0 0 0 0 0 0 0 0 0 0 0 0 0 0 0 0 0 0 0 0 0 0 0 0 0 0 0 0 0 0 0 0 0 0 0 0 0 0 0 0 0 0 0 0 0 0 0
0 0 0 0 0 0 0 0 0 0 0 0 0 0 0 0 0 0 0 0 0 0 0 0 0 0 0 0 0 0 0 0 0 0 0 0 0 0 0 0 0 0 0 0 0 0 0 0 0
0 0 0 0 0 0 0 0 0 0 0 0 0 0 0 0 0 0 0 0 0 0 0 0 0 0 0 0 0 0 0 0 0 0 0 0 0 0 0 0 0 0 0 0 0 0 0 0 0
0 0 0 0 0 0 0 0 0 0 0 0 0 0 0 0 0 0 0 0 0 0 0 0 0 0 0 0 0 0 0 0 0 0 0 0 0 0 0 0 0 0 0 0 0 0 0 0 0
0 0 0 0 0 0 0 0 0 0 0 0 0 0 0 0 0 0 0 0 0 0 0 0 0 0 0 0 0 0 0 0 0 0 0 0 0 0 0 0 0 0 0 0 0 0 0 0 0
0 0 0 0 0 0 0 0 0 0 0 0 0 0 0 0 0 0 0 0 0 0 0 0 0 0 0 0 0 0 0 0 0 0 0 0 0 0 0 0 0 0 0 0 0 0 0 0 0
0 0 0 0 0 0 0 0 0 0 0 0 0 0 0 0 0 0 0 0 0 0 0 0 0 0 0 0 0 0 0 0 0 0 0 0 0 0 0 0 0 0 0 0 0 0 0 0 0
0 0 0 0 0 0 0 0 0 0 0 0 0 0 0 0 0 0 0 0 0 0 0 0 0 0 0 0 0 0 0 0 0 0 0 0 0 0 0 0 0 0 0 0 0 0 0 0 0
0 0 0 0 0 0 0 0 0 0 0 0 0 0 0 0 0 0 0 0 0 0 0 0 0 0 0 0 0 0 0 0 0 0 0 0 0 0 0 0 0 0 0 0 0 0 0 0 0
0 0 0 0 0 0 0 0 0 0 0 0 0 0 0 0 0 0 0 0 0 0 0 0 0 0 0 0 0 0 0 0 0 0 0 0 0 0 0 0 0 0 0 0 0 0 0 0 0
0 0 0 0 0 0 0 0 0 0 0 0 0 0 0 0 0 0 0 0 0 0 0 0 0 0 0 0 0 0 0 0 0 0 0 0 0 0 0 0 0 0 0 0 0 0 0 0 0
0 0 0 0 0 0 0 0 0 0 0 0 0 0 0 0 0 0 0 0 0 0 0 0 0 0 0 0 0 0 0 0 0 0 0 0 0 0 0 0 0 0 0 0 0 0 0 0 0
0 0 0 0 0 0 0 0 0 0 0 0 0 0 0 0 0 0 0 0 0 0 0 0 0 0 0 0 0 0 0 0 0 0 0 0 0 0 0 0 0 0 0 0 0 0 0 0 0
0 0 0 0 0 0 0 0 0 0 0 0 0 0 0 0 0 0 0 0 0 0 0 0 0 0 0 0 0 0 0 0 0 0 0 0 0 0 0 0 0 0 0 0 0 0 0 0 0
0 0 0 0 0 0 0 0 0 0 0 0 0 0 0 0 0 0 0 0 0 0 0 0 0 0 0 0 0 0 0 0 0 0 0 0 0 0 0 0 0 0 0 0 0 0 0 0 0
0 0 0 0 0 0 0 0 0 0 0 0 0 0 0 0 0 0 0 0 0 0 0 0 0 0 0 0 0 0 0 0 0 0 0 0 0 0 0 0 0 0 0 0 0 0 0 0 0
0 0 0 0 0 0 0 0 0 0 0 0 0 0 0 0 0 0 0 0 0 0 0 0 0 0 0 0 0 0 0 0 0 0 0 0 0 0 0 0 0 0 0 0 0 0 0 0 0
0 0 0 0 0 0 0 0 0 0 0 0 0 0 0 0 0 0 0 0 0 0 0 0 0 0 0 0 0 0 0 0 0 0 0 0 0 0 0 0 0 0 0 0 0 0 0 0 0
0 0 0 0 0 0 0 0 0 0 0 0 0 0 0 0 0 0 0 0 0 0 0 0 0 0 0 0 0 0 0 0 0 0 0 0 0 0 0 0 0 0 0 0 0 0 0 0 0
0 0 0 0 0 0 0 0 0 0 0 0 0 0 0 0 0 0 0 0 0 0 0 0 0 0 0 0 0 0 0 0 0 0 0 0 0 0 0 0 0 0 0 0 0 0 0 0 0
0 0 0 0 0 0 0 0 0 0 0 0 0 0 0 0 0 0 0 0 0 0 0 0 0 0 0 0 0 0 0 0 0 0 0 0 0 0 0 0 0 0 0 0 0 0 0 0 0
0 0 0 0 0 0 0 0 0 0 0 0 0 0 0 0 0 0 0 0 0 0 0 0 0 0 0 0 0 0 0 0 0 0 0 0 0 0 0 0 0 0 0 0 0 0 0 0 0
0 0 0 0 0 0 0 0 0 0 0 0 0 0 0 0 0 0 0 0 0 0 0 0 0 0 0 0 0 0 0 0 0 0 0 0 0 0 0 0 0 0 0 0 0 0 0 0 0
0 0 0 0 0 0 0 0 0 0 0 0 0 0 0 0 0 0 0 0 0 0 0 0 0 0 0 0 0 0 0 0 0 0 0 0 0 0 0 0 0 0 0 0 0 0 0 0 0
0 0 0 0 0 0 0 0 0 0 0 0 0 0 0 0 0 0 0 0 0 0 0 0 0 0 0 0 0 0 0 0 0 0 0 0 0 0 0 0 0 0 0 0 0 0 0 0 0
0 0 0 0 0 0 0 0 0 0 0 0 0 0 0 0 0 0 0 0 0 0 0 0 0 0 0 0 0 0 0 0 0 0 0 0 0 0 0 0 0 0 0 0 0 0 0 0 0
0 0 0 0 0 0 0 0 0 0 0 0 0 0 0 0 0 0 0 0 0 0 0 0 0 0 0 0 0 0 0 0 0 0 0 0 0 0 0 0 0 0 0 0 0 0 0 0 0
0 0 0 0 0 0 0 0 0 0 0 0 0 0 0 0 0 0 0 0 0 0 0 0 0 0 0 0 0 0 0 0 0 0 0 0 0 0 0 0 0 0 0 0 0 0 0 0 0
Wind_Speed
10 10 7 2 1 2 6 6 7 6 8 8 9 10 13 13 9 7 2 3 7 8 10 9 10 10 10 10 10 10 9 9 10 11 11 11 11 11 11 11 12 12 12 11 11 11 11 11 11
10 6 4 2 0 3 6 6 9 8 6 5 8 11 13 13 11 7 3 4 7 10 10 9 9 10 10 10 10 10 9 9 9 10 10 11 11 12 11 11 11 11 12 12 11 11 10 11 11
11 8 3 1 3 5 6 7 8 7 5 6 8 11 10 8 9 5 3 5 8 10 10 9 10 10 11 11 10 10 9 9 10 10 11 11 11 11 11 11 11 11 11 11 11 10 10 10 10
5 3 1 2 7 8 7 7 6 6 6 7 8 10 10 9 6 6 5 6 8 9 10 9 10 10 10 10 11 11 10 10 10 10 11 11 12 12 12 11 11 11 11 11 10 10 10 10 10
3 1 1 4 7 7 8 7 6 6 8 9 10 11 10 9 8 7 5 6 8 8 10 10 10 10 10 10 11 11 11 11 11 11 11 11 11 12 12 12 12 12 11 11 10 10 9 9 9
2 1 1 5 7 7 7 5 6 8 8 8 8 10 8 7 7 5 5 5 7 8 9 9 11 10 10 10 10 10 11 11 10 10 10 10 10 11 12 12 12 12 12 11 11 10 9 9 9
1 1 3 6 6 6 6 6 7 6 8 7 7 8 7 7 6 4 4 5 6 7 7 7 8 9 10 10 10 9 9 9 9 9 10 10 10 10 11 11 11 11 11 11 11 10 10 9 8
2 1 3 4 5 5 6 6 6 6 7 6 5 7 6 7 6 5 5 5 5 6 6 5 6 7 7 7 8 8 8 7 7 7 7 8 9 8 9 9 9 9 10 9 9 9 8 8 7
1 1 3 4 4 5 5 5 6 5 7 7 8 10 9 8 7 5 4 5 4 5 5 5 5 5 6 5 6 6 6 5 4 4 5 4 3 3 4 7 8 7 7 7 7 6 6 5 4
1 2 4 4 5 5 5 5 5 5 6 6 8 9 9 7 6 5 5 5 4 4 4 4 4 5 5 4 4 2 3 3 2 2 3 2 2 3 5 5 6 5 4 4 4 4 3 2 2
3 3 5 6 6 5 4 3 3 4 4 5 7 8 8 6 5 5 4 5 4 4 4 4 4 4 5 3 3 1 1 1 1 2 3 2 2 2 3 2 2 2 2 1 1 1 1 2 3
4 4 5 5 5 3 3 3 4 5 5 6 7 7 7 5 5 4 3 5 5 4 3 3 3 4 4 3 2 2 1 1 1 1 3 2 2 2 2 2 2 1 1 2 2 2 3 4 4
4 4 5 4 3 3 2 3 4 5 4 5 6 7 6 4 4 4 4 5 5 5 4 3 3 4 4 3 2 3 2 1 2 2 2 3 2 2 2 2 1 2 1 2 2 2 3 4 4
4 4 4 4 3 3 2 2 3 4 4 5 6 5 6 3 4 4 4 4 5 4 5 4 3 4 4 3 2 2 2 2 2 2 2 2 2 2 2 2 2 2 1 2 2 3 3 3 3
4 4 4 4 3 2 1 1 2 4 4 4 5 5 5 4 3 3 3 4 5 4 5 4 3 3 4 3 2 2 2 3 2 2 2 3 2 2 2 2 2 1 2 3 3 4 3 3 3
6 4 3 4 4 3 2 1 3 3 4 4 4 5 5 4 4 3 3 3 4 5 5 4 3 3 4 3 3 2 3 3 2 2 2 2 2 3 2 2 2 2 2 2 2 2 3 3 3
4 3 3 4 3 3 3 2 2 3 3 4 5 6 5 5 5 4 3 3 4 5 5 5 3 3 4 3 3 3 3 3 2 2 2 3 3 3 3 2 2 2 2 2 2 3 2 2 2
2 1 1 2 3 3 2 2 3 3 3 3 4 6 5 6 5 5 4 3 3 4 5 5 3 3 3 2 2 2 2 2 2 2 2 2 2 3 3 2 2 2 2 2 2 2 2 1 1
2 2 2 1 2 2 2 2 3 3 2 3 3 5 5 5 6 5 5 4 3 4 4 5 4 3 3 2 2 2 1 1 2 2 2 2 2 2 2 2 2 2 1 1 2 2 1 1 1
4 3 2 1 1 2 2 4 4 4 4 2 2 3 4 5 6 6 6 5 4 3 3 4 4 3 3 2 1 1 1 1 2 2 2 2 2 2 1 2 2 1 1 2 2 2 1 1 1
3 2 3 3 4 5 4 5 5 5 5 3 1 1 2 3 5 5 5 5 4 3 3 3 3 4 3 3 2 1 1 1 2 1 1 1 2 2 2 1 1 1 1 1 1 1 1 0 1
3 3 4 5 5 4 5 3 3 5 5 4 3 2 2 3 4 4 4 5 4 3 3 3 3 3 2 3 2 2 1 1 0 1 1 1 1 1 2 2 1 1 1 1 1 1 1 1 0
4 4 6 8 8 8 8 5 3 6 5 4 3 3 3 3 3 3 3 4 4 3 3 2 2 3 2 2 3 2 1 0 1 1 1 1 1 1 2 1 1 1 1 1 1 1 1 1 0
4 7 9 9 7 8 7 5 2 3 5 5 4 4 3 3 3 3 3 3 3 4 3 2 2 2 2 2 2 2 1 1 1 1 1 0 0 0 0 1 1 1 1 1 1 1 0 0 0
6 5 3 3 4 4 3 2 2 5 5 5 4 3 4 3 3 4 3 3 3 3 3 3 2 2 2 1 1 1 1 1 1 1 0 0 0 0 0 1 1 1 1 1 1 1 0 0 0
5 5 4 4 4 3 3 1 4 7 6 5 4 4 4 3 3 3 3 3 3 3 3 3 3 2 1 1 1 1 1 1 1 1 1 1 1 1 0 1 1 0 1 1 1 0 0 0 1
5 5 5 6 8 6 3 2 4 5 5 5 4 4 3 3 3 3 3 2 3 2 2 2 2 2 1 0 1 0 0 1 1 1 0 1 0 0 0 1 1 1 1 1 1 1 1 0 0
5 5 3 4 4 5 3 2 1 3 2 2 3 3 3 3 3 3 3 2 2 2 2 2 2 2 1 0 1 1 1 1 0 1 0 0 0 0 0 0 0 0 1 0 1 1 1 0 1
5 6 5 4 4 4 4 1 2 4 3 2 2 3 3 3 2 2 2 2 2 1 2 1 1 1 1 1 1 1 1 1 1 1 1 1 1 0 1 1 1 0 0 0 1 0 1 1 1
4 6 5 4 5 4 4 1 2 4 3 3 3 3 3 3 3 2 2 2 1 1 2 2 1 0 1 1 1 1 1 1 1 1 1 1 1 1 1 1 1 0 0 0 1 1 1 1 2
Wind_Direction
276 257 249 260 265 86 67 67 74 57 54 49 53 64 64 54 52 80 102 62 85 90 92 77 63 61 61 60 58 57 62 64 65 66 66 65 64 63 61 59 60 59 60 61 61 59 56 56 55
280 278 273 240 211 89 81 77 71 64 64 62 63 68 71 63 72 91 97 72 84 89 86 77 69 65 63 61 59 59 62 68 72 74 72 69 67 64 63 60 58 59 60 60 60 60 57 57 53
269 268 276 304 49 72 86 83 81 77 65 65 68 60 55 63 68 89 107 97 92 93 92 85 75 72 67 63 59 59 64 71 75 76 75 72 69 68 66 64 61 59 58 59 60 60 59 58 54
270 270 249 69 71 71 87 93 94 94 79 66 74 77 70 63 78 96 102 98 97 99 100 97 87 79 73 69 65 61 67 75 77 78 78 75 70 70 69 66 63 62 60 58 56 56 57 58 55
251 273 105 90 80 78 76 80 90 89 79 68 76 91 90 81 88 95 93 89 93 98 103 106 99 90 83 78 74 70 72 81 80 80 81 79 75 71 70 65 64 63 59 55 53 55 56 56 53
283 249 115 99 94 88 90 94 87 84 85 85 89 97 95 101 94 90 88 86 92 99 105 113 113 104 94 88 83 80 79 83 83 83 83 82 79 75 73 68 66 64 60 54 52 51 56 57 51
313 15 99 104 102 91 82 74 76 79 79 75 84 93 109 108 104 104 97 85 86 95 105 113 125 121 109 100 95 92 89 88 88 85 83 85 84 81 76 71 70 69 65 61 59 56 54 53 47
314 82 116 106 105 98 85 79 77 73 74 68 75 90 112 119 123 121 117 104 98 102 105 110 119 123 124 117 108 108 103 97 95 95 91 89 88 87 83 77 74 73 69 66 65 64 59 53 44
294 118 101 101 109 109 112 101 91 91 91 75 72 85 110 129 131 125 115 99 90 93 106 109 111 113 113 118 118 125 120 119 114 112 108 103 99 100 89 85 84 77 74 71 70 67 65 57 51
113 81 85 88 97 106 108 103 113 104 98 100 97 100 116 128 131 126 111 103 98 88 96 100 112 111 114 109 119 126 122 132 135 114 118 113 91 83 89 103 93 84 75 72 70 64 63 47 54
89 84 79 79 87 102 104 103 109 116 106 104 113 120 121 127 127 119 117 116 108 97 87 90 100 111 113 105 109 101 98 120 107 104 109 97 91 90 84 96 97 89 79 47 64 50 24 48 54
95 88 91 86 84 101 116 107 84 66 79 96 112 124 126 132 130 129 124 109 107 104 99 95 95 103 104 99 103 108 102 104 91 74 91 88 79 84 89 81 72 59 38 27 34 33 38 45 45
104 102 105 114 118 111 120 111 97 92 102 112 118 126 124 135 127 122 118 114 115 113 105 91 92 94 98 92 88 96 97 91 86 62 70 87 90 89 89 80 71 57 41 33 22 49 44 40 37
115 120 127 133 137 136 129 146 147 133 143 136 130 134 135 140 131 127 121 117 113 112 102 86 71 83 90 87 78 82 99 85 79 69 67 78 83 75 84 78 71 59 42 37 35 49 50 49 42
155 157 155 156 166 160 157 182 161 144 145 144 139 134 132 130 121 119 123 124 119 117 111 108 102 96 101 96 98 84 76 85 79 60 62 61 71 77 74 70 63 56 49 44 38 42 41 49 50
198 191 173 163 172 170 198 196 124 153 157 160 148 140 142 146 141 129 110 114 117 117 113 110 106 95 91 85 83 82 77 76 80 63 42 54 68 72 63 61 52 47 52 46 43 44 39 39 39
211 204 177 162 181 190 203 208 167 180 180 174 166 155 161 156 141 125 116 112 118 123 119 115 104 102 91 85 81 70 79 72 71 68 48 36 48 64 71 61 50 47 47 44 38 46 42 41 35
232 222 232 193 179 215 222 204 189 217 215 203 177 165 168 150 141 137 128 118 118 121 120 119 120 119 105 90 85 78 73 80 78 73 56 43 38 52 70 72 58 60 55 46 39 39 36 55 39
291 261 244 263 245 237 229 232 210 195 215 226 190 167 160 149 146 135 127 120 115 114 117 125 129 116 107 92 79 88 70 73 80 79 76 55 48 53 69 62 53 55 59 63 69 58 32 32 42
271 272 282 260 268 272 245 238 220 187 185 196 209 170 157 158 144 132 127 122 112 109 114 117 114 105 103 99 92 108 111 84 89 68 59 48 46 41 65 79 79 65 65 57 59 69 45 1 37
264 279 283 287 272 246 243 235 202 169 156 159 183 121 114 127 134 136 133 127 121 113 110 112 106 106 112 114 98 77 70 58 63 66 63 43 48 36 29 56 87 105 98 87 82 98 82 16 352
280 310 296 284 275 259 235 251 183 167 160 153 156 144 110 108 109 121 138 135 129 121 118 111 108 101 107 118 111 108 105 96 112 109 99 64 57 43 46 29 50 67 86 104 104 85 86 101 315
299 302 281 270 271 270 252 251 192 160 155 150 144 119 110 117 117 122 123 131 132 124 112 110 113 111 111 121 128 134 127 115 85 84 88 91 71 63 61 30 10 55 92 107 83 70 64 113 162
285 279 264 251 253 258 251 245 184 161 152 152 145 132 124 116 122 120 119 123 122 121 122 124 121 113 114 119 131 144 144 109 89 73 97 102 106 85 84 62 17 34 67 91 97 102 85 19 346
254 276 275 249 230 240 251 231 131 114 115 122 127 127 122 116 122 122 121 121 121 125 140 139 124 108 105 108 113 145 170 162 159 155 144 155 136 354 271 78 49 29 33 71 96 120 170 165 238
265 265 280 292 294 300 277 216 102 102 104 109 115 113 106 105 105 119 121 123 126 127 143 144 139 132 122 141 196 199 170 151 179 165 157 186 201 205 209 125 119 81 61 81 99 150 249 224 224
261 266 284 286 286 281 240 148 107 88 99 101 101 100 105 98 89 96 110 115 121 125 136 150 152 148 148 224 258 167 266 182 168 183 175 192 199 215 199 126 129 146 103 128 149 166 230 234 229
267 285 281 271 286 283 266 204 138 114 104 113 122 115 102 92 87 89 94 95 97 123 156 170 170 153 140 189 289 314 250 268 203 138 164 302 261 265 309 207 113 100 109 88 142 180 238 228 223
232 249 254 264 265 277 292 336 74 135 140 139 125 116 117 112 97 79 76 82 77 72 90 117 142 150 165 212 263 304 292 241 244 187 198 237 256 270 277 282 225 192 123 123 107 192 273 261 267
254 265 263 268 277 278 285 283 75 103 121 131 129 116 103 95 87 83 79 69 83 99 91 76 54 63 183 238 286 283 290 244 244 249 246 221 231 248 258 259 259 251 230 211 164 242 252 257 258